Location: Newark
(47.2000°N, 1.7500°W)
Time: 05:12:51
(UTC+00:00)

N. Korean satellite - Visible Passes

Search period start: 20 September 2019 00:00
Search period end: 30 September 2019 00:00
Orbit: 455 x 509 km, 97.2° (Epoch: 18 September)

Date Brightness Start Highest point End Pass type
(mag) Time Alt. Az. Time Alt. Az. Time Alt. Az.
20 Sep 10.2 05:01:32 10° ENE 05:02:45 11° E 05:03:59 10° ESE visible
23 Sep 9.7 05:18:09 10° NE 05:20:37 18° E 05:23:05 10° SE visible
27 Sep 9.9 05:10:53 10° NE 05:13:01 15° E 05:15:08 10° SE visible
